{"data":{"norad_id":57970,"intl_designator":"2023-151G","name":"STARLINK-30494","alt_names":[],"object_type":"PAYLOAD","status":"ACTIVE","operator":null,"country":"US","launch_date":"2023-09-30","launch_site_code":"AFETR","launch_vehicle":null,"mission":null,"orbit_class":"UNKNOWN","rcs_meters":null,"size_class":null,"mass_kg":null,"dimensions":null,"purposes":["comms"],"wikipedia_slug":null,"has_3d_model":false,"image_url":null,"decayed_at":null,"tle_current":{"epoch":"2026-05-24T22:10:17.743008Z","epoch_age_seconds":84927,"freshness":"FRESH","line1":"1 57970U 23151G   26144.92381647  .00000514  00000+0  28202-4 0  9994","line2":"2 57970  43.0047 120.0203 0001782 277.5724  82.4925 15.27576528149112","mean_motion":15.27576528,"eccentricity":0.0001782,"inclination_deg":43.0047,"raan_deg":120.0203,"arg_perigee_deg":277.5724,"mean_anomaly_deg":82.4925,"bstar":2.8202e-5,"rev_number":14911,"period_min":94.266962970774,"perigee_km":481.83682726143,"apogee_km":484.28215769135,"semimajor_km":6861.1964924764,"source":"CELESTRAK","updated_at":"2026-05-25T13:38:18.484663Z"}}}